Location: Bijele Vode
(45.2833°N, 16.2000°E)
Time: 11:00:18
(UTC+00:00)

Daily predictions for brighter satellites

Satellite Brightness Start Highest point End
(mag) Time Altitude Azimuth Time Altitude Azimuth Time Altitude Azimuth
Cosmos 1544 3.0 17:21:52 10° S 17:25:31 73° E 17:29:10 10° NNE
MOS 1 Rocket 4.0 17:21:49 10° NE 17:25:37 27° E 17:29:18 10° SSE
CZ-2C R/B 3.2 17:25:59 10° SSW 17:27:23 12° SSE 17:28:45 10° SE
NOSS 2-2 (E) 4.1 17:24:43 10° S 17:27:39 25° ESE 17:30:47 10° ENE
Cosmos 1842 3.3 17:28:09 10° N 17:31:59 55° E 17:35:46 10° SSE
Cosmos 1975 Rocket 3.4 17:30:54 10° N 17:35:04 44° ENE 17:39:12 10° SSE
NOSS 2-2 (D) 4.1 17:33:13 10° S 17:36:06 24° ESE 17:39:08 10° ENE
COSMO-SKYMED 1 3.7 17:33:51 10° N 17:38:03 49° WNW 17:42:13 10° SW
Cosmos 2084 Rocket 3.5 17:34:01 10° NW 17:38:28 73° NE 17:42:59 10° SE
H-2A R/B 2.1 17:35:11 10° SSE 17:39:59 55° ENE 17:44:56 10° N
ARGOS 3.5 17:35:19 10° SE 17:40:22 45° ENE 17:45:28 10° N
Cosmos 158 Rocket 4.5 17:35:19 10° NNW 17:40:34 66° WSW 17:45:39 10° S
CZ-2C R/B 3.7 17:39:28 10° NE 17:43:57 25° E 17:48:28 10° SSE
CENTAUR R/B 4.1 17:37:19 10° NNW 17:44:06 32° NNE 17:51:21 11° E
ATLAS 5 CENTAUR R/B 2.3 17:42:06 10° NW 17:44:57 85° SW 17:53:25 10° SE
DMSP B5D1-3 4.5 17:40:34 10° NNE 17:45:40 71° ESE 17:50:45 10° S
Cosmos 1707 3.6 17:43:07 10° NNE 17:46:32 29° ENE 17:49:55 10° SE
Cosmos 1743 4.4 17:43:00 10° SSW 17:46:38 39° WNW 17:50:15 10° N
Iridium 4 Rocket 3.5 17:42:21 10° S 17:47:12 88° W 17:52:36 10° N
SJ-6B 4.1 17:46:10 12° ESE 17:48:36 20° ENE 17:51:24 10° NNE
Sich 1 Rocket 4.0 17:44:27 10° SSE 17:48:40 43° E 17:52:59 10° NNE
ATLAS CENTAUR R/B 4.1 17:51:53 10° WNW 17:53:33 12° NW 17:55:13 10° N
Cosmos 2263 Rocket 2.2 17:49:56 10° SSW 17:55:30 88° WNW 18:01:08 10° NNE
Meteor 2-9 Rocket 4.3 17:52:23 10° S 17:58:15 90° E 18:04:06 10° N
USA 102 4.4 17:53:23 10° SSE 17:58:45 85° ENE 18:03:14 10° NNW
DELTA 2 R/B (1) 4.5 17:54:13 10° W 17:59:20 39° SSW 18:03:49 13° SE
SL-08 RB Rocket 4.1 17:55:43 10° SE 18:00:04 44° ENE 18:04:26 10° N
CZ-2C R/B 3.4 17:57:47 10° S 18:02:58 73° WSW 18:08:29 10° NNW
Cosmos 1844 Rocket 3.6 17:58:47 10° SSE 18:03:06 24° ESE 18:07:27 10° NE
SJ 16-02 3.3 18:00:18 10° SW 18:04:15 32° WNW 18:08:12 10° N
Cosmos 1464 Rocket 4.1 17:59:18 10° SSE 18:05:11 51° E 18:11:07 10° NNE
ISS -3.1 18:03:28 10° SSW 18:06:35 36° SE 18:08:14 22° E
Okean 2 Rocket 3.4 18:04:38 10° SSE 18:08:54 45° E 18:13:12 10° NNE
Abrixas rocket 2.5 18:06:44 10° W 18:09:31 50° N 18:11:14 20° ENE
Cosmos 1943 3.5 18:05:41 10° NNW 18:11:19 70° WSW 18:16:56 10° SSE
Lacrosse 5 rocket 3.5 18:10:36 10° WNW 18:14:10 25° NNW 18:17:53 10° NE
Meteor 1-12 Rocket 4.4 18:08:45 10° S 18:14:32 58° E 18:20:15 10° NNE
Ariane Rocket 3.1 18:09:48 10° SE 18:14:43 54° ENE 18:19:40 10° N
Cosmos 1437 4.1 18:16:08 10° NNW 18:18:56 37° W 18:21:43 10° SSW
NOSS 2-2 (C) 2.9 18:16:59 10° SSW 18:20:28 74° SE 18:24:17 10° NE
NOSS 3-2 (A) 4.3 18:13:37 10° NNW 18:20:53 55° NE 18:26:32 21° ESE
Cosmos 1300 Rocket 3.5 18:17:53 10° S 18:22:12 60° E 18:26:34 10° NNE
Cosmos 2298 Rocket 4.3 18:17:53 10° S 18:22:56 45° ESE 18:27:59 10° NNE
SPOT 3 Rocket 4.3 18:22:58 24° ESE 18:25:03 32° ENE 18:29:35 10° N
MetOp-A 4.3 18:22:25 16° SE 18:26:31 54° ENE 18:31:44 10° N
Cosmos 1891 Rocket 4.4 18:26:44 10° S 18:32:54 87° E 18:39:00 10° N
Cosmos 1867 3.6 18:29:31 10° NW 18:35:01 83° WSW 18:38:36 22° SSE
Cosmos 1536 Rocket 3.5 18:34:45 10° N 18:39:11 63° E 18:41:16 30° SSE
USA 234 3.3 18:35:20 10° ENE 18:41:43 52° SE 18:48:04 10° SSW
Cosmos 1626 4.2 18:42:11 10° NNE 18:43:19 15° NE 18:43:19 15° NE
Meteor 2-5 Rocket 4.2 18:41:33 10° N 18:46:49 39° ENE 18:48:05 35° ESE
DMSP B5D2-2 4.0 18:41:49 10° NNE 18:47:08 71° ESE 18:52:23 10° S
Cosmos 2151 Rocket 3.5 18:45:38 10° S 18:50:04 87° E 18:54:35 10° N
USA 186 2.7 18:48:48 25° SSW 18:50:15 45° W 18:53:22 10° NNW
Cosmos 372 Rocket 4.2 18:45:24 10° SSW 18:50:38 75° WNW 18:55:54 10° NNE
Cosmos 2150 Rocket 3.9 18:47:40 10° SSW 18:53:00 75° ESE 18:58:28 10° NNE
Cosmos 1025 Rocket 3.3 18:48:48 10° NNW 18:53:10 69° W 18:56:09 20° S
NOSS 3-2 (C) 4.2 18:47:42 10° NNW 18:55:00 57° NE 18:58:44 33° ESE
Nadezhda 4 Rocket 3.9 18:53:51 10° N 19:00:00 86° W 19:04:42 18° S
OBJECT-B 1.3 19:01:23 52° N 19:01:23 52° N 19:03:55 10° N
Cosmos 2034 Rocket 4.0 18:55:40 10° S 19:02:03 84° W 19:08:27 10° N
Cosmos 2082 Rocket 4.2 19:01:01 10° N 19:03:52 14° NE 19:04:43 13° NE
Cosmos 1125 Rocket 3.4 18:58:46 10° S 19:03:59 62° ESE 19:09:15 10° NNE
FREGAT/IRIS 4.3 19:05:32 29° WNW 19:05:32 29° WNW 19:07:19 10° NNW
Exosat Rocket 3.5 18:59:45 10° S 19:05:27 61° ESE 19:10:23 10° NNE
CZ-2C R/B 3.5 19:04:17 10° SW 19:04:39 11° SSW 19:04:39 11° SSW
Cosmos 1674 2.7 19:06:06 10° N 19:09:42 77° N 19:09:42 77° N
COSMOS 2406 4.2 19:07:04 10° N 19:12:00 29° NE 19:12:17 29° ENE
Meteor 1-24 Rocket 3.9 19:08:43 10° N 19:14:02 49° ENE 19:14:11 49° E
Resurs 01 Rocket 1.7 19:19:16 66° NE 19:19:16 66° NE 19:23:21 10° N
H-2A R/B 4.5 19:16:19 10° SW 19:19:48 19° W 19:23:21 10° NW
ATLAS 2AS CENTAUR R/B 3.7 19:14:52 10° S 19:24:48 33° ENE 19:29:30 10° NE
SJ-6B 4.4 19:21:47 24° SW 19:23:04 30° W 19:26:26 10° NNW
CZ-2C R/B 3.5 19:19:09 10° N 19:24:29 51° WNW 19:29:53 10° SW
KORONAS-FOTON 4.5 19:23:42 10° NNW 19:27:14 55° WNW 19:27:14 55° WNW
SPOT 1/Viking Rocket 4.4 19:33:46 37° NE 19:33:46 37° NE 19:37:34 10° N
Cosmos 1844 3.7 19:28:49 10° SSW 19:34:32 83° WNW 19:40:13 10° NNE
Cosmos 1634 Rocket 3.8 19:34:23 59° S 19:35:39 81° E 19:41:52 10° N
CENTAUR R/B 3.1 19:27:52 10° NW 19:35:59 83° NE 19:38:32 52° SE
ARIANE 5 R/B 3.7 19:37:43 37° N 19:37:43 37° N 19:40:29 10° N
Cosmos 2285 Rocket 4.0 19:34:22 10° SSW 19:40:40 82° WNW 19:47:04 10° NNE
MetOp-B 4.1 19:41:10 73° NNE 19:41:10 73° NNE 19:46:11 10° N
ATLAS 3B R/B 3.4 19:35:30 10° NNW 19:41:53 40° NE 19:42:49 38° ENE
Cosmos 1269 Rocket 4.2 19:36:49 10° NNW 19:41:30 63° NNE 19:41:30 63° NNE
ISS -1.1 19:40:08 10° W 19:41:15 19° W 19:41:15 19° W
USA 238 DEB 4.0 19:36:29 10° NW 19:43:40 66° WSW 19:45:38 49° S
USA 238 4.0 19:36:35 10° NW 19:43:46 67° WSW 19:45:43 49° S
Cosmos 1844 Rocket 3.3 19:41:08 10° SW 19:46:34 55° WNW 19:52:05 10° NNE
Spot 2 Rocket 4.1 19:48:07 46° NNE 19:48:07 46° NNE 19:51:50 10° N
Okean 1 Rocket 4.0 19:51:22 46° WNW 19:51:22 46° WNW 19:55:35 10° N
Lacrosse 5 rocket 3.8 19:51:32 10° NW 19:54:38 18° N 19:55:13 18° NNE
Cosmos 2026 Rocket 4.4 19:59:40 10° NNW 20:05:54 59° W 20:06:56 53° SW
Cosmos 1833 Rocket 3.5 20:03:40 10° NNW 20:07:47 43° NNE 20:07:47 43° NNE
Terra 3.9 20:19:13 21° N 20:19:13 21° N 20:20:53 10° N
Cosmos 2279 Rocket 4.2 20:20:51 65° NNW 20:20:51 65° NNW 20:26:17 10° N
USA 234 3.7 20:19:22 15° NE 20:24:47 58° NNW 20:31:10 10° WSW
Cosmos 2082 Rocket 3.6 20:43:31 10° NNW 20:46:33 32° N 20:46:33 32° N
ATLAS 2AS CENTAUR R/B 3.5 21:11:59 53° WNW 21:13:04 57° NW 21:20:49 10° NNE
Cosmos 2278 Rocket 4.4 21:22:33 19° NNE 21:22:33 19° NNE 21:24:06 10° NNE
CENTAUR R/B 4.5 21:19:26 10° NW 21:25:44 28° WSW 21:25:44 28° WSW
ATLAS 3B R/B 3.9 21:26:08 10° NW 21:30:03 35° WNW 21:30:03 35° WNW
